Weather History for Lewisburg, WV

Change the Weather History Date:

Saturday, January 18, 2014

  Actual Average Record
Temperature  
Mean Temperature 17 °F 28 °F  
Max Temperature 22 °F 38 °F 60 °F (1990)
Min Temperature 11 °F 18 °F -8 °F (1994)
Degree Days  
Heating Degree Days 48    
Month to date heating degree days 690  
Cooling Degree Days 0    
Month to date cooling degree days 0  
Year to date cooling degree days 0  
Moisture  
Dew Point 7 °F    
Average Humidity 65    
Maximum Humidity 80    
Minimum Humidity 49    
Precipitation  
Precipitation T in 0.10 in 1.11 in (1980)
Month to date precipitation 0.67 1.84  
Year to date precipitation 0.67 1.84  
Snow  
Snow 0.50 in - - ()
Month to date snowfall 2.6  
Snow Depth 1.00 in    
Sea Level Pressure  
Sea Level Pressure 29.90 in    
Wind  
Wind Speed 5 mph (WNW)    
Max Wind Speed 14 mph    
Max Gust Speed 20 mph    
Visibility 9 miles    
Events Snow    
T = Trace of Precipitation, MM = Missing Value Source: NWS Daily Summary

Daily Weather History Graph

Daily Weather History Graph

Search for Another Location

Airport:

Trip Planner

Search our weather history database for the weather conditions in past years. The results will help you decide how hot, cold, wet, or windy it might be!

Date:

Astronomy

Jan. 18, 2014 Rise Set
Actual Time 7:34 AM EST 5:29 PM EST
Civil Twilight 7:06 AM EST 5:58 PM EST
Nautical Twilight 6:34 AM EST 6:30 PM EST
Astronomical Twilight 6:02 AM EST 7:01 PM EST
Moon 8:06 PM EST (1/18) 8:36 AM EST (1/18)
Length of Visible Light 10h 51m
Length of Day
9h 54m
Waning Gibbous, 94% of the Moon is Illuminated
Jan 18
Waning Gibbous
Jan 24
Last Quarter
Jan 30
New
Feb 6
First Quarter
Feb 14
Full

Hourly Weather History & Observations

Time (EST) Temp. Windchill Dew Point Humidity Pressure Visibility Wind Dir Wind Speed Gust Speed Precip Events Conditions
12:15 AM 21.2 °F 13.6 °F 13.1 °F 71% 29.88 in 10.0 mi WNW 5.8 mph - N/A   Overcast
12:35 AM 20.5 °F 12.8 °F 11.5 °F 68% 29.88 in 10.0 mi WNW 5.8 mph - N/A   Mostly Cloudy
12:55 AM 19.8 °F 11.9 °F 10.6 °F 68% 29.88 in 10.0 mi NW 5.8 mph - N/A   Overcast
1:15 AM 19.2 °F 12.5 °F 10.2 °F 68% 29.87 in 10.0 mi WNW 4.6 mph - N/A   Overcast
1:35 AM 18.5 °F 13.3 °F 10.2 °F 70% 29.87 in 10.0 mi WNW 3.5 mph - N/A   Overcast
1:55 AM 18.0 °F 12.7 °F 9.7 °F 70% 29.87 in 10.0 mi West 3.5 mph - N/A   Mostly Cloudy
2:15 AM 16.7 °F 11.2 °F 9.5 °F 73% 29.86 in 10.0 mi NNW 3.5 mph - N/A   Scattered Clouds
2:35 AM 16.7 °F 11.2 °F 9.7 °F 74% 29.87 in 10.0 mi West 3.5 mph - N/A   Mostly Cloudy
2:55 AM 16.2 °F 6.5 °F 7.0 °F 67% 29.88 in 10.0 mi WNW 6.9 mph - N/A   Mostly Cloudy
3:15 AM 15.8 °F 5.1 °F 7.3 °F 69% 29.88 in 10.0 mi NW 8.1 mph - N/A   Mostly Cloudy
3:35 AM 15.8 °F 7.2 °F 7.2 °F 69% 29.88 in 10.0 mi WNW 5.8 mph - N/A   Overcast
3:55 AM 15.8 °F 8.6 °F 6.6 °F 67% 29.87 in 10.0 mi WNW 4.6 mph - N/A   Overcast
4:15 AM 15.6 °F 10.0 °F 6.4 °F 67% 29.87 in 10.0 mi West 3.5 mph - N/A   Overcast
4:35 AM 15.6 °F 4.9 °F 6.1 °F 66% 29.87 in 10.0 mi NW 8.1 mph - N/A   Overcast
4:55 AM 14.9 °F 1.6 °F 5.7 °F 67% 29.86 in 10.0 mi WNW 11.5 mph 17.3 mph N/A   Overcast
5:15 AM 14.5 °F 3.6 °F 4.8 °F 65% 29.87 in 10.0 mi WNW 8.1 mph 19.6 mph N/A   Overcast
5:35 AM 14.0 °F 3.9 °F 4.8 °F 67% 29.87 in 10.0 mi WNW 6.9 mph - N/A   Overcast
5:55 AM 13.5 °F 3.3 °F 4.6 °F 68% 29.88 in 10.0 mi WNW 6.9 mph - N/A   Mostly Cloudy
6:15 AM 13.1 °F 4.0 °F 4.1 °F 67% 29.89 in 10.0 mi WNW 5.8 mph - N/A   Mostly Cloudy
6:35 AM 12.9 °F -2.2 °F 4.5 °F 69% 29.90 in 7.0 mi WNW 13.8 mph 19.6 mph N/A   Overcast
6:55 AM 12.0 °F -0.4 °F 1.6 °F 63% 29.90 in 10.0 mi NW 9.2 mph 16.1 mph N/A   Overcast
7:15 AM 11.7 °F 2.3 °F 1.6 °F 64% 29.91 in 10.0 mi WNW 5.8 mph - N/A   Overcast
7:35 AM 11.3 °F -2.2 °F 2.1 °F 67% 29.91 in 10.0 mi West 10.4 mph - N/A   Overcast
7:55 AM 11.1 °F 0.4 °F 2.8 °F 69% 29.91 in 7.0 mi WNW 6.9 mph - N/A Snow Light Snow
8:15 AM 10.9 °F 0.2 °F 2.7 °F 69% 29.92 in 7.0 mi WNW 6.9 mph - N/A Snow Light Snow
8:35 AM 11.3 °F 0.7 °F 2.3 °F 67% 29.92 in 10.0 mi WNW 6.9 mph - N/A Snow Light Snow
8:55 AM 11.5 °F 2.1 °F 3.0 °F 69% 29.93 in 7.0 mi WNW 5.8 mph - N/A Snow Light Snow
9:15 AM 12.9 °F 2.6 °F 3.2 °F 65% 29.93 in 10.0 mi WNW 6.9 mph - N/A   Overcast
9:35 AM 13.1 °F 4.0 °F 3.2 °F 65% 29.94 in 10.0 mi NW 5.8 mph - N/A   Overcast
9:55 AM 14.4 °F 4.3 °F 4.1 °F 64% 29.94 in 10.0 mi WNW 6.9 mph - N/A   Overcast
10:15 AM 14.0 °F 5.1 °F 4.5 °F 66% 29.95 in 10.0 mi WNW 5.8 mph - N/A   Overcast
10:35 AM 14.4 °F 4.3 °F 4.1 °F 64% 29.95 in 10.0 mi WNW 6.9 mph - N/A   Overcast
10:55 AM 14.9 °F 5.0 °F 4.1 °F 62% 29.95 in 10.0 mi WNW 6.9 mph - N/A   Overcast
11:15 AM 16.0 °F 7.4 °F 5.0 °F 62% 29.95 in 10.0 mi WNW 5.8 mph - N/A   Overcast
11:35 AM 16.5 °F 6.0 °F 5.2 °F 61% 29.94 in 10.0 mi West 8.1 mph - N/A   Overcast
11:55 AM 16.9 °F 6.4 °F 4.6 °F 59% 29.94 in 10.0 mi WNW 8.1 mph - N/A   Overcast
12:15 PM 17.2 °F 7.8 °F 5.0 °F 59% 29.94 in 10.0 mi West 6.9 mph - N/A   Overcast
12:35 PM 17.4 °F 10.4 °F 5.4 °F 59% 29.93 in 10.0 mi WNW 4.6 mph - N/A   Overcast
12:55 PM 18.7 °F 7.0 °F 5.4 °F 56% 29.92 in 10.0 mi West 10.4 mph 19.6 mph N/A   Overcast
1:15 PM 20.1 °F 11.3 °F 5.7 °F 54% 29.92 in 10.0 mi WNW 6.9 mph - N/A   Overcast
1:35 PM 19.9 °F 11.1 °F 5.4 °F 53% 29.92 in 10.0 mi WNW 6.9 mph - N/A   Overcast
1:55 PM 19.8 °F 9.9 °F 5.7 °F 55% 29.91 in 10.0 mi WNW 8.1 mph - N/A   Mostly Cloudy
2:15 PM 18.3 °F 9.1 °F 5.2 °F 57% 29.91 in 10.0 mi NW 6.9 mph - N/A   Mostly Cloudy
2:35 PM 19.6 °F 9.7 °F 5.2 °F 54% 29.91 in 10.0 mi WNW 8.1 mph 17.3 mph N/A   Scattered Clouds
2:55 PM 21.2 °F 10.9 °F 5.2 °F 50% 29.91 in 10.0 mi West 9.2 mph 18.4 mph N/A   Clear
3:15 PM 21.2 °F 13.6 °F 5.7 °F 51% 29.90 in 10.0 mi West 5.8 mph - N/A   Clear
3:35 PM 20.5 °F 12.8 °F 5.5 °F 53% 29.90 in 10.0 mi West 5.8 mph - N/A   Clear
3:55 PM 21.0 °F - 6.1 °F 53% 29.90 in 10.0 mi Calm Calm - N/A   Clear
4:15 PM 21.6 °F 12.1 °F 6.6 °F 53% 29.91 in 10.0 mi WSW 8.1 mph - N/A   Clear
4:35 PM 21.6 °F 15.3 °F 6.8 °F 53% 29.92 in 10.0 mi SW 4.6 mph - N/A   Clear
4:55 PM 20.8 °F 14.4 °F 7.0 °F 55% 29.90 in 10.0 mi SW 4.6 mph - N/A   Clear
5:15 PM 19.6 °F 14.5 °F 7.3 °F 59% 29.90 in 10.0 mi SW 3.5 mph - N/A   Clear
5:35 PM 18.9 °F 13.7 °F 7.2 °F 60% 29.90 in 10.0 mi SW 3.5 mph - N/A   Clear
5:55 PM 18.1 °F - 7.3 °F 63% 29.90 in 10.0 mi Calm Calm - N/A   Clear
6:15 PM 15.4 °F - 7.2 °F 70% 29.89 in 10.0 mi Calm Calm - N/A   Clear
6:35 PM 17.1 °F - 7.5 °F 66% 29.89 in 10.0 mi Calm Calm - N/A   Clear
6:55 PM 16.3 °F - 6.8 °F 66% 29.89 in 10.0 mi Calm Calm - N/A   Clear
7:15 PM 16.5 °F - 7.5 °F 68% 29.89 in 10.0 mi Calm Calm - N/A   Clear
7:35 PM 17.1 °F - 7.2 °F 65% 29.89 in 10.0 mi Calm Calm - N/A   Clear
7:55 PM 16.3 °F - 7.9 °F 69% 29.88 in 10.0 mi Calm Calm - N/A   Clear
8:15 PM 15.8 °F - 7.5 °F 70% 29.89 in 10.0 mi Calm Calm - N/A   Clear
8:35 PM 14.7 °F - 8.2 °F 75% 29.88 in 10.0 mi Calm Calm - N/A   Mostly Cloudy
8:55 PM 15.1 °F 9.4 °F 9.5 °F 79% 29.88 in 10.0 mi NE 3.5 mph - N/A   Overcast
9:15 PM 15.8 °F 8.6 °F 9.1 °F 75% 29.87 in 10.0 mi North 4.6 mph - N/A   Scattered Clouds
9:35 PM 17.4 °F 10.4 °F 9.0 °F 69% 29.89 in 10.0 mi North 4.6 mph - N/A   Mostly Cloudy
9:55 PM 17.6 °F - 10.4 °F 73% 29.89 in 10.0 mi Calm Calm - N/A   Overcast
10:15 PM 17.8 °F - 10.2 °F 72% 29.90 in 10.0 mi Calm Calm - N/A   Overcast
10:35 PM 18.0 °F - 10.9 °F 74% 29.89 in 2.0 mi Calm Calm - N/A Snow Light Snow
10:55 PM 17.4 °F - 12.6 °F 81% 29.89 in 1.2 mi Calm Calm - N/A Snow Snow
11:15 PM 17.2 °F - 13.6 °F 86% 29.88 in 1.0 mi Calm Calm - N/A Snow Snow
11:35 PM 17.1 °F 11.7 °F 14.0 °F 88% 29.86 in 4.0 mi NNE 3.5 mph - N/A Snow Light Snow
11:55 PM 17.2 °F - 14.5 °F 89% 29.85 in 4.0 mi Calm Calm - N/A Snow Light Snow